Location: Marshall
(39.8477°N, 87.1868°W)
Time: 03:53:53
(UTC+00:00)

Envisat - Pass Details

Date: 15 May 2026
Orbit: 761 x 763 km, 98.4° (Epoch: 9 June)

Event Time Altitude Azimuth Distance (km) Brightness Sun altitude
Rises 07:16:17 0° 30° (NNE) 3,230 7.5 -27.5°
Reaches altitude 10° 07:19:18 10° 49° (NE) 2,298 6.3 -27.3°
Maximum altitude 07:22:46 18° 92° (E) 1,779 5.1 -27.0°
Enters shadow 07:24:37 15° 119° (ESE) 1,936 5.0 -26.8°
